• In Belgien
  • Länderverzeichnis
  • Für 7 Tage
  • Wassertemperatur
  • Satellitenkarten
  • Wetterkarte
  • Widgets
  • user-avatar
    Anmelden

    Stündliche Wetter Sydney

    Heute, 18 Oktober, Mittwoch

    Zeit Temperatur Niederschläge Wind Luftdruck Luftfeuchtigkeit
    00:00 +16°C° 0 mm 3 m/S 770 mmHg 90%
    01:00 +16°C° 0 mm 3 m/S 770 mmHg 92%
    02:00 +14°C° 0 mm 3 m/S 770 mmHg 93%
    03:00 +14°C° 0 mm 3 m/S 769 mmHg 93%
    04:00 +14°C° 0 mm 3 m/S 769 mmHg 94%
    05:00 +17°C° 0 mm 3 m/S 769 mmHg 88%
    06:00 +18°C° 0 mm 3 m/S 770 mmHg 82%
    07:00 +19°C° 0 mm 3 m/S 770 mmHg 76%
    08:00 +21°C° 0 mm 4 m/S 770 mmHg 69%
    09:00 +22°C° 0 mm 5 m/S 770 mmHg 61%
    10:00 +25°C° 0 mm 5 m/S 770 mmHg 53%
    11:00 +26°C° 0 mm 6 m/S 769 mmHg 51%
    12:00 +26°C° 0 mm 6 m/S 769 mmHg 48%
    13:00 +27°C° 0 mm 6 m/S 768 mmHg 46%
    14:00 +27°C° 0 mm 7 m/S 768 mmHg 48%
    15:00 +26°C° 0 mm 7 m/S 768 mmHg 50%
    16:00 +26°C° 0 mm 6 m/S 767 mmHg 52%
    17:00 +23°C° 0 mm 6 m/S 767 mmHg 58%
    18:00 +22°C° 0 mm 6 m/S 768 mmHg 65%
    19:00 +20°C° 0 mm 6 m/S 768 mmHg 72%
    20:00 +20°C° 0 mm 6 m/S 768 mmHg 76%
    21:00 +19°C° 0 mm 6 m/S 769 mmHg 79%
    22:00 +17°C° 0 mm 6 m/S 769 mmHg 83%
    23:00 +17°C° 0 mm 5 m/S 769 mmHg 85%

    Morgen, 19 Oktober, Donnerstag

    Zeit Temperatur Niederschläge Wind Luftdruck Luftfeuchtigkeit
    00:00 +16°C° 0 mm 5 m/S 769 mmHg 87%
    01:00 +16°C° 0 mm 5 m/S 768 mmHg 88%
    02:00 +16°C° 0 mm 5 m/S 768 mmHg 89%
    03:00 +15°C° 0 mm 5 m/S 768 mmHg 90%
    04:00 +15°C° 0 mm 5 m/S 768 mmHg 91%
    05:00 +16°C° 0 mm 5 m/S 768 mmHg 85%
    06:00 +17°C° 0 mm 5 m/S 768 mmHg 79%
    07:00 +19°C° 0 mm 5 m/S 768 mmHg 73%
    08:00 +22°C° 0 mm 5 m/S 768 mmHg 63%
    09:00 +26°C° 0 mm 5 m/S 767 mmHg 52%
    10:00 +29°C° 0 mm 5 m/S 767 mmHg 42%
    11:00 +30°C° 0 mm 6 m/S 766 mmHg 39%
    12:00 +32°C° 0 mm 6 m/S 765 mmHg 35%
    13:00 +34°C° 0 mm 7 m/S 764 mmHg 32%
    14:00 +33°C° 0 mm 7 m/S 764 mmHg 34%
    15:00 +32°C° 0 mm 8 m/S 763 mmHg 36%
    16:00 +32°C° 0 mm 8 m/S 763 mmHg 38%
    17:00 +28°C° 0 mm 8 m/S 763 mmHg 46%
    18:00 +26°C° 0 mm 8 m/S 763 mmHg 55%
    19:00 +23°C° 0 mm 7 m/S 763 mmHg 63%
    20:00 +23°C° 0 mm 7 m/S 764 mmHg 66%
    21:00 +22°C° 0 mm 6 m/S 764 mmHg 69%
    22:00 +21°C° 0 mm 5 m/S 764 mmHg 72%
    23:00 +21°C° 0 mm 4 m/S 763 mmHg 75%

    übermorgen, 20 Oktober, Freitag

    Zeit Temperatur Niederschläge Wind Luftdruck Luftfeuchtigkeit
    00:00 +20°C° 0 mm 3 m/S 763 mmHg 77%
    01:00 +20°C° 0 mm 2 m/S 763 mmHg 80%
    02:00 +20°C° 0,6 mm 2 m/S 762 mmHg 83%
    03:00 +20°C° 0,6 mm 2 m/S 762 mmHg 87%
    04:00 +19°C° 0,6 mm 2 m/S 762 mmHg 90%
    05:00 +20°C° 2,3 mm 1 m/S 762 mmHg 91%
    06:00 +20°C° 2,3 mm 1 m/S 763 mmHg 93%
    07:00 +21°C° 2,3 mm 1 m/S 763 mmHg 94%
    08:00 +20°C° 1,4 mm 2 m/S 763 mmHg 93%
    09:00 +20°C° 1,4 mm 3 m/S 764 mmHg 91%
    10:00 +20°C° 1,4 mm 4 m/S 764 mmHg 89%
    11:00 +19°C° 0,6 mm 5 m/S 764 mmHg 88%
    12:00 +17°C° 0,6 mm 7 m/S 764 mmHg 86%
    13:00 +16°C° 0,6 mm 8 m/S 764 mmHg 85%
    14:00 +16°C° 0,2 mm 8 m/S 764 mmHg 84%
    15:00 +16°C° 0,2 mm 7 m/S 764 mmHg 84%
    16:00 +16°C° 0,2 mm 7 m/S 764 mmHg 84%
    17:00 +16°C° 0,1 mm 7 m/S 765 mmHg 84%
    18:00 +15°C° 0,1 mm 7 m/S 765 mmHg 84%
    19:00 +15°C° 0,1 mm 6 m/S 766 mmHg 84%
    20:00 +15°C° 0 mm 6 m/S 766 mmHg 82%
    21:00 +15°C° 0 mm 6 m/S 766 mmHg 80%
    22:00 +15°C° 0 mm 6 m/S 767 mmHg 77%
    23:00 +14°C° 0 mm 6 m/S 766 mmHg 78%

    21 Oktober, Samstag

    Zeit Temperatur Niederschläge Wind Luftdruck Luftfeuchtigkeit
    00:00 +14°C° 0 mm 6 m/S 766 mmHg 78%
    01:00 +13°C° 0 mm 6 m/S 766 mmHg 79%
    02:00 +13°C° 0 mm 6 m/S 766 mmHg 80%
    03:00 +12°C° 0 mm 5 m/S 766 mmHg 81%
    04:00 +12°C° 0 mm 5 m/S 765 mmHg 82%
    05:00 +13°C° 0 mm 5 m/S 766 mmHg 78%
    06:00 +13°C° 0 mm 5 m/S 766 mmHg 74%
    07:00 +14°C° 0 mm 5 m/S 766 mmHg 70%
    08:00 +15°C° 0,1 mm 5 m/S 766 mmHg 66%
    09:00 +16°C° 0,1 mm 5 m/S 766 mmHg 63%
    10:00 +18°C° 0,1 mm 4 m/S 765 mmHg 60%
    11:00 +19°C° 0,1 mm 4 m/S 765 mmHg 58%
    12:00 +19°C° 0,1 mm 4 m/S 764 mmHg 57%
    13:00 +20°C° 0,1 mm 5 m/S 763 mmHg 55%
    14:00 +20°C° 0 mm 4 m/S 763 mmHg 55%
    15:00 +20°C° 0 mm 4 m/S 762 mmHg 55%
    16:00 +20°C° 0 mm 4 m/S 762 mmHg 56%
    17:00 +18°C° 0 mm 4 m/S 762 mmHg 63%
    18:00 +17°C° 0 mm 3 m/S 763 mmHg 71%
    19:00 +14°C° 0 mm 3 m/S 763 mmHg 78%
    20:00 +15°C° 0 mm 2 m/S 763 mmHg 81%
    21:00 +14°C° 0 mm 1 m/S 763 mmHg 83%
    22:00 +14°C° 0 mm 1 m/S 763 mmHg 86%
    23:00 +14°C° 0 mm 1 m/S 763 mmHg 86%

    22 Oktober, Sonntag

    Zeit Temperatur Niederschläge Wind Luftdruck Luftfeuchtigkeit
    00:00 +14°C° 0 mm 1 m/S 762 mmHg 87%
    01:00 +14°C° 0 mm 1 m/S 762 mmHg 87%
    02:00 +13°C° 0 mm 1 m/S 761 mmHg 88%
    03:00 +13°C° 0 mm 2 m/S 761 mmHg 89%
    04:00 +13°C° 0 mm 2 m/S 761 mmHg 90%
    05:00 +14°C° 0 mm 1 m/S 761 mmHg 84%
    06:00 +15°C° 0 mm 1 m/S 761 mmHg 79%
    07:00 +16°C° 0 mm 1 m/S 761 mmHg 73%
    08:00 +19°C° 0 mm 1 m/S 760 mmHg 63%
    09:00 +22°C° 0 mm 1 m/S 760 mmHg 52%
    10:00 +24°C° 0 mm 1 m/S 760 mmHg 41%
    11:00 +24°C° 0 mm 1 m/S 759 mmHg 40%
    12:00 +24°C° 0 mm 2 m/S 759 mmHg 39%
    13:00 +25°C° 0 mm 2 m/S 758 mmHg 39%
    14:00 +24°C° 0 mm 3 m/S 758 mmHg 41%
    15:00 +24°C° 0 mm 3 m/S 757 mmHg 44%
    16:00 +22°C° 0 mm 4 m/S 757 mmHg 47%
    17:00 +21°C° 0,2 mm 4 m/S 758 mmHg 55%
    18:00 +19°C° 0,2 mm 3 m/S 758 mmHg 64%
    19:00 +18°C° 0,2 mm 3 m/S 759 mmHg 73%
    20:00 +17°C° 0,8 mm 3 m/S 759 mmHg 77%
    21:00 +17°C° 0,8 mm 3 m/S 759 mmHg 81%
    22:00 +16°C° 0,8 mm 3 m/S 760 mmHg 86%
    23:00 +16°C° 0,8 mm 3 m/S 760 mmHg 87%

    23 Oktober, Montag

    Zeit Temperatur Niederschläge Wind Luftdruck Luftfeuchtigkeit
    00:00 +16°C° 0,8 mm 3 m/S 760 mmHg 88%
    01:00 +14°C° 0,8 mm 3 m/S 760 mmHg 89%
    02:00 +14°C° 0,1 mm 3 m/S 760 mmHg 90%
    03:00 +15°C° 0,1 mm 2 m/S 760 mmHg 90%
    04:00 +14°C° 0,1 mm 2 m/S 760 mmHg 91%
    05:00 +14°C° 0 mm 3 m/S 761 mmHg 88%
    06:00 +16°C° 0 mm 3 m/S 761 mmHg 85%
    07:00 +15°C° 0 mm 4 m/S 762 mmHg 82%
    08:00 +18°C° 0 mm 4 m/S 762 mmHg 71%
    09:00 +20°C° 0 mm 4 m/S 762 mmHg 60%
    10:00 +22°C° 0 mm 4 m/S 762 mmHg 49%
    11:00 +22°C° 0 mm 4 m/S 762 mmHg 48%
    12:00 +22°C° 0 mm 4 m/S 761 mmHg 48%
    13:00 +22°C° 0 mm 4 m/S 761 mmHg 47%
    14:00 +22°C° 0 mm 4 m/S 761 mmHg 48%
    15:00 +22°C° 0 mm 4 m/S 761 mmHg 48%
    16:00 +22°C° 0 mm 4 m/S 761 mmHg 49%
    17:00 +20°C° 0 mm 3 m/S 761 mmHg 56%
    18:00 +18°C° 0 mm 3 m/S 762 mmHg 64%
    19:00 +17°C° 0 mm 2 m/S 762 mmHg 71%
    20:00 +16°C° 0 mm 2 m/S 763 mmHg 75%
    21:00 +15°C° 0 mm 2 m/S 763 mmHg 79%
    22:00 +15°C° 0 mm 1 m/S 763 mmHg 83%
    23:00 +14°C° 0 mm 1 m/S 763 mmHg 84%
    Mehr zeigen